TimeCET,TemperatureF,Dew PointF,Humidity,Sea Level PressureIn,VisibilityMPH,Wind Direction,Wind SpeedMPH,Gust SpeedMPH,PrecipitationIn,Events,Conditions,WindDirDegrees,DateUTC
12:00 AM,51.8,51.8,100,30.36,0.4,Variable,1.2,-,N/A,Fog,Patches of Fog,0,2013-01-31 23:00:00
12:30 AM,51.8,51.8,100,30.36,0.4,Calm,Calm,-,N/A,Fog,Patches of Fog,0,2013-01-31 23:30:00
1:00 AM,52,50,92,30.36,0,SW,1.2,,,Fog,Heavy Fog,230,2013-02-01 00:00:00
1:00 AM,51.8,51.8,100,30.36,0.4,SW,3.5,-,N/A,Fog,Patches of Fog,220,2013-02-01 00:00:00
1:30 AM,51.8,51.8,100,30.33,0.4,Variable,2.3,-,N/A,Fog,Patches of Fog,0,2013-02-01 00:30:00
2:00 AM,53.6,53.6,100,30.33,0.4,Variable,2.3,-,N/A,Fog,Patches of Fog,0,2013-02-01 01:00:00
2:30 AM,51.8,51.8,100,30.33,1.2,WSW,4.6,-,N/A,Fog,Patches of Fog,240,2013-02-01 01:30:00
3:00 AM,53.6,53.6,100,30.30,1.2,Variable,2.3,-,N/A,Fog,Patches of Fog,0,2013-02-01 02:00:00
3:30 AM,53.6,53.6,100,30.30,1.2,Variable,2.3,-,N/A,Fog,Patches of Fog,0,2013-02-01 02:30:00
4:00 AM,53.6,53.6,100,30.30,1.2,SW,3.5,-,N/A,Fog,Patches of Fog,230,2013-02-01 03:00:00
4:30 AM,53.6,53.6,100,30.27,0.5,Calm,Calm,-,N/A,Fog,Patches of Fog,0,2013-02-01 03:30:00
5:00 AM,53.6,53.6,100,30.27,0.5,Variable,1.2,-,N/A,Fog,Patches of Fog,0,2013-02-01 04:00:00
5:30 AM,51.8,51.8,100,30.27,0.5,Variable,1.2,-,N/A,Fog,Patches of Fog,0,2013-02-01 04:30:00
6:00 AM,50.0,50.0,100,30.24,0.3,NW,1.2,-,N/A,Fog,Patches of Fog,310,2013-02-01 05:00:00
6:30 AM,50.0,50.0,100,30.24,0.2,Calm,Calm,-,N/A,Fog,Patches of Fog,0,2013-02-01 05:30:00
7:00 AM,50,49,94,30.25,0,Calm,Calm,,,Fog,Heavy Fog,,2013-02-01 06:00:00
7:00 AM,50.0,50.0,100,30.24,0.2,Variable,1.2,-,N/A,Fog,Patches of Fog,0,2013-02-01 06:00:00
7:30 AM,50.0,50.0,100,30.24,0.2,Variable,1.2,-,N/A,Fog,Patches of Fog,0,2013-02-01 06:30:00
8:00 AM,50.0,50.0,100,30.24,0.1,Variable,1.2,-,N/A,Fog,Patches of Fog,0,2013-02-01 07:00:00
8:30 AM,50.0,50.0,100,30.21,0.1,SSE,2.3,-,N/A,Fog,Patches of Fog,160,2013-02-01 07:30:00
9:00 AM,50.0,50.0,100,30.21,0.1,Variable,2.3,-,N/A,Fog,Patches of Fog,0,2013-02-01 08:00:00
9:30 AM,51.8,51.8,100,30.21,0.1,Variable,1.2,-,N/A,Fog,Patches of Fog,0,2013-02-01 08:30:00
10:00 AM,51.8,51.8,100,30.21,0.1,Calm,Calm,-,N/A,Fog,Patches of Fog,0,2013-02-01 09:00:00
10:30 AM,53.6,53.6,100,30.21,0.1,Calm,Calm,-,N/A,Fog,Patches of Fog,0,2013-02-01 09:30:00
11:00 AM,53.6,53.6,100,30.18,0.1,Variable,1.2,-,N/A,Fog,Patches of Fog,0,2013-02-01 10:00:00
11:05 AM,53.6,53.6,100,30.18,0.6,Variable,1.2,-,N/A,Fog,Patches of Fog,0,2013-02-01 10:05:00
11:10 AM,55.4,55.4,100,30.18,1.9,Variable,1.2,-,N/A,Fog,Patches of Fog,0,2013-02-01 10:10:00
11:16 AM,55.4,55.4,100,30.18,5.0,Variable,1.2,-,N/A,,Partly Cloudy,0,2013-02-01 10:16:00
11:30 AM,57.2,57.2,100,30.18,6.2,SW,5.8,-,N/A,,Partly Cloudy,220,2013-02-01 10:30:00
12:00 PM,59.0,57.2,94,30.15,6.2,SSW,11.5,-,N/A,,Partly Cloudy,210,2013-02-01 11:00:00
12:30 PM,59.0,57.2,94,30.15,6.2,SSW,10.4,-,N/A,Fog,Partly Cloudy,210,2013-02-01 11:30:00
1:00 PM,60,54,76,30.14,9,SSW,11.5,,,,Partly Cloudy,210,2013-02-01 12:00:00
1:00 PM,59.0,57.2,94,30.12,6.2,SSW,13.8,-,N/A,,Partly Cloudy,210,2013-02-01 12:00:00
1:30 PM,60.8,55.4,82,30.12,6.2,SW,12.7,-,N/A,,Partly Cloudy,220,2013-02-01 12:30:00
2:00 PM,59.0,55.4,88,30.09,6.2,SW,13.8,-,N/A,,Partly Cloudy,230,2013-02-01 13:00:00
2:30 PM,60.8,55.4,82,30.06,6.2,SW,11.5,-,N/A,,Partly Cloudy,230,2013-02-01 13:30:00
3:00 PM,60.8,57.2,88,30.04,6.2,SW,11.5,-,N/A,,Partly Cloudy,220,2013-02-01 14:00:00
3:30 PM,60.8,57.2,88,30.04,6.2,SW,11.5,-,N/A,,Partly Cloudy,220,2013-02-01 14:30:00
4:00 PM,59.0,55.4,88,30.01,6.2,SW,9.2,-,N/A,,Partly Cloudy,220,2013-02-01 15:00:00
4:30 PM,60.8,55.4,82,29.98,6.2,WSW,8.1,-,N/A,,Partly Cloudy,240,2013-02-01 15:30:00
5:00 PM,59.0,55.4,88,29.98,-9999.0,SW,10.4,-,N/A,,Clear,230,2013-02-01 16:00:00
5:30 PM,59.0,53.6,82,29.98,-9999.0,SW,9.2,-,N/A,,Clear,230,2013-02-01 16:30:00
6:00 PM,57.2,53.6,88,29.95,-9999.0,SW,9.2,-,N/A,,Clear,220,2013-02-01 17:00:00
6:30 PM,57.2,53.6,88,29.95,6.2,SW,8.1,-,N/A,,Partly Cloudy,220,2013-02-01 17:30:00
7:00 PM,55,51,83,29.95,9,SW,6.9,,,,Scattered Clouds,230,2013-02-01 18:00:00
7:00 PM,57.2,53.6,88,29.95,6.2,SW,3.5,-,N/A,,Partly Cloudy,220,2013-02-01 18:00:00
7:30 PM,57.2,53.6,88,29.92,6.2,SW,5.8,-,N/A,,Partly Cloudy,220,2013-02-01 18:30:00
8:00 PM,57.2,53.6,88,29.92,6.2,SW,8.1,-,N/A,,Partly Cloudy,230,2013-02-01 19:00:00
8:30 PM,57.2,53.6,88,29.89,-9999.0,SW,6.9,-,N/A,,Clear,230,2013-02-01 19:30:00
9:00 PM,57.2,55.4,94,29.89,-9999.0,SW,9.2,-,N/A,,Clear,230,2013-02-01 20:00:00
9:30 PM,55.4,53.6,94,29.86,-9999.0,SW,8.1,-,N/A,,Clear,220,2013-02-01 20:30:00
10:00 PM,55.4,53.6,94,29.86,-9999.0,SW,3.5,-,N/A,,Clear,230,2013-02-01 21:00:00
10:30 PM,55.4,53.6,94,29.83,5.6,Variable,2.3,-,N/A,,Partly Cloudy,0,2013-02-01 21:30:00
11:00 PM,55.4,53.6,94,29.83,5.6,SW,4.6,-,N/A,,Partly Cloudy,220,2013-02-01 22:00:00
11:30 PM,59.0,50.0,72,29.80,-9999.0,WSW,13.8,-,N/A,,Clear,240,2013-02-01 22:30:00